ZKXXK NZNS-NZWN

Flight info

Callsign ZKXXK
Flight time 0h 22m
Altitude 15000
Route LUSRA H267 SIMZI
Aircraft C25A/L-SDFGRWY/S

Departure

Time 2026-04-16 04:24
Airport Nelson Airport (NZNS)

Arrival

Time 2026-04-16 04:47
Airport Wellington International Airport (NZWN)
Time Latitude Longitude Altitude Speed Heading
2026-04-16 04:05 -41.30083 173.22375 10 ft 0 kts 218°
2026-04-16 04:20 -41.30078 173.22372 10 ft 4 kts 64°
2026-04-16 04:21 -41.30025 173.22379 10 ft 13 kts 350°
2026-04-16 04:21 -41.29939 173.22349 10 ft 13 kts 26°
2026-04-16 04:21 -41.29853 173.22446 10 ft 20 kts 41°
2026-04-16 04:21 -41.29739 173.22534 10 ft 19 kts 23°
2026-04-16 04:22 -41.29615 173.22631 10 ft 22 kts 41°
2026-04-16 04:22 -41.29558 173.22785 10 ft 17 kts 41°
2026-04-16 04:22 -41.29467 173.22890 10 ft 21 kts 40°
2026-04-16 04:22 -41.29347 173.23024 10 ft 21 kts 21°
2026-04-16 04:23 -41.29305 173.23013 10 ft 0 kts 329°
2026-04-16 04:23 -41.29303 173.23012 10 ft 4 kts 329°
2026-04-16 04:24 -41.29249 173.22931 10 ft 14 kts 230°
2026-04-16 04:24 -41.29470 173.22669 10 ft 85 kts 220°
2026-04-16 04:24 -41.30096 173.21942 253 ft 143 kts 223°
2026-04-16 04:24 -41.30842 173.21051 1270 ft 154 kts 223°
2026-04-16 04:25 -41.31765 173.19965 1927 ft 200 kts 222°
2026-04-16 04:25 -41.32912 173.18655 2902 ft 227 kts 222°
2026-04-16 04:25 -41.34110 173.17304 4142 ft 228 kts 222°
2026-04-16 04:25 -41.35317 173.15889 5467 ft 233 kts 229°
2026-04-16 04:26 -41.36281 173.14159 6850 ft 232 kts 239°
2026-04-16 04:26 -41.37083 173.12300 8219 ft 230 kts 243°
2026-04-16 04:26 -41.37810 173.10457 9526 ft 225 kts 243°
2026-04-16 04:26 -41.38530 173.08611 10848 ft 218 kts 243°
2026-04-16 04:27 -41.39212 173.06881 12117 ft 209 kts 242°
2026-04-16 04:27 -41.39892 173.05193 13252 ft 205 kts 242°
2026-04-16 04:27 -41.40573 173.03530 14233 ft 204 kts 241°
2026-04-16 04:27 -41.41266 173.01853 14610 ft 204 kts 242°
2026-04-16 04:28 -41.41955 173.00192 14615 ft 203 kts 241°
2026-04-16 04:28 -41.42617 172.98550 14611 ft 200 kts 246°
2026-04-16 04:28 -41.42754 172.96712 14597 ft 211 kts 277°
2026-04-16 04:28 -41.41892 172.95041 14621 ft 237 kts 311°
2026-04-16 04:29 -41.40267 172.94244 14624 ft 268 kts 344°
2026-04-16 04:29 -41.38363 172.94740 14635 ft 293 kts 19°
2026-04-16 04:29 -41.36698 172.96372 14634 ft 303 kts 41°
2026-04-16 04:29 -41.35596 172.98757 14625 ft 310 kts 75°
2026-04-16 04:30 -41.35379 173.01555 14637 ft 295 kts 96°
2026-04-16 04:30 -41.35283 173.04454 14636 ft 332 kts 89°
2026-04-16 04:30 -41.35048 173.07689 14635 ft 366 kts 88°
2026-04-16 04:30 -41.34768 173.11075 14626 ft 370 kts 86°
2026-04-16 04:31 -41.34479 173.14494 14623 ft 373 kts 87°
2026-04-16 04:31 -41.34176 173.17927 14621 ft 375 kts 87°
2026-04-16 04:31 -41.33868 173.21382 14622 ft 377 kts 86°
2026-04-16 04:31 -41.33559 173.24800 14622 ft 378 kts 87°
2026-04-16 04:32 -41.33281 173.28283 14623 ft 378 kts 88°
2026-04-16 04:32 -41.33034 173.31772 14624 ft 379 kts 88°
2026-04-16 04:32 -41.32797 173.35267 14624 ft 380 kts 88°
2026-04-16 04:32 -41.32547 173.38765 14625 ft 380 kts 88°
2026-04-16 04:33 -41.32288 173.42274 14641 ft 380 kts 88°
2026-04-16 04:33 -41.32043 173.45776 14648 ft 380 kts 88°
2026-04-16 04:33 -41.31803 173.49281 14652 ft 381 kts 88°
2026-04-16 04:33 -41.31546 173.52787 14652 ft 381 kts 88°
2026-04-16 04:34 -41.31278 173.56302 14652 ft 381 kts 88°
2026-04-16 04:34 -41.31013 173.59813 14653 ft 381 kts 88°
2026-04-16 04:34 -41.30785 173.63326 14653 ft 381 kts 89°
2026-04-16 04:34 -41.30610 173.66797 14655 ft 381 kts 91°
2026-04-16 04:35 -41.30491 173.70317 14654 ft 380 kts 92°
2026-04-16 04:35 -41.30398 173.73827 14653 ft 380 kts 92°
2026-04-16 04:35 -41.30317 173.77358 14653 ft 380 kts 93°
2026-04-16 04:35 -41.30247 173.80864 14652 ft 379 kts 94°
2026-04-16 04:36 -41.30235 173.84371 14655 ft 379 kts 95°
2026-04-16 04:36 -41.30257 173.87879 14653 ft 379 kts 95°
2026-04-16 04:36 -41.30474 173.91316 14650 ft 371 kts 109°
2026-04-16 04:36 -41.31343 173.94462 14665 ft 361 kts 122°
2026-04-16 04:37 -41.32355 173.97528 14444 ft 357 kts 121°
2026-04-16 04:37 -41.33268 174.00475 14074 ft 338 kts 119°
2026-04-16 04:37 -41.34122 174.03356 13698 ft 334 kts 118°
2026-04-16 04:37 -41.34967 174.06269 13291 ft 341 kts 117°
2026-04-16 04:38 -41.35820 174.09296 12808 ft 348 kts 117°
2026-04-16 04:38 -41.36634 174.12299 12348 ft 351 kts 116°
2026-04-16 04:38 -41.37456 174.15373 11877 ft 352 kts 115°
2026-04-16 04:38 -41.38244 174.18358 11379 ft 327 kts 115°
2026-04-16 04:39 -41.38967 174.21154 10850 ft 315 kts 114°
2026-04-16 04:39 -41.39675 174.23882 10329 ft 310 kts 113°
2026-04-16 04:39 -41.40379 174.26571 9845 ft 300 kts 113°
2026-04-16 04:39 -41.41059 174.29159 9367 ft 292 kts 112°
2026-04-16 04:40 -41.41717 174.31656 8895 ft 287 kts 111°
2026-04-16 04:40 -41.42378 174.34161 8396 ft 285 kts 111°
2026-04-16 04:40 -41.43034 174.36642 7897 ft 283 kts 111°
2026-04-16 04:40 -41.43685 174.39112 7397 ft 282 kts 111°
2026-04-16 04:41 -41.44221 174.41625 6960 ft 280 kts 106°
2026-04-16 04:41 -41.44804 174.44135 6541 ft 290 kts 111°
2026-04-16 04:41 -41.45503 174.46706 6117 ft 297 kts 112°
2026-04-16 04:41 -41.46240 174.49299 5692 ft 300 kts 112°
2026-04-16 04:42 -41.46844 174.51979 5209 ft 303 kts 105°
2026-04-16 04:42 -41.47224 174.54717 4747 ft 295 kts 98°
2026-04-16 04:42 -41.47320 174.57369 4324 ft 277 kts 86°
2026-04-16 04:42 -41.46973 174.59826 4143 ft 265 kts 72°
2026-04-16 04:43 -41.46216 174.62102 3900 ft 269 kts 62°
2026-04-16 04:43 -41.45288 174.64235 3442 ft 261 kts 56°
2026-04-16 04:43 -41.44324 174.66137 3134 ft 242 kts 54°
2026-04-16 04:43 -41.43367 174.67912 2886 ft 226 kts 53°
2026-04-16 04:44 -41.42474 174.69527 3018 ft 215 kts 52°
2026-04-16 04:44 -41.41615 174.71035 2999 ft 189 kts 51°
2026-04-16 04:44 -41.40842 174.72361 2729 ft 173 kts 49°
2026-04-16 04:44 -41.40098 174.73570 2423 ft 171 kts 48°
2026-04-16 04:45 -41.39330 174.74787 2084 ft 172 kts 47°
2026-04-16 04:45 -41.38558 174.75984 1798 ft 164 kts 46°
2026-04-16 04:45 -41.37841 174.77086 1492 ft 153 kts 45°
2026-04-16 04:45 -41.37159 174.78137 1179 ft 146 kts 44°
2026-04-16 04:46 -41.36507 174.79126 882 ft 138 kts 43°
2026-04-16 04:46 -41.35868 174.80024 634 ft 127 kts 37°
2026-04-16 04:46 -41.35135 174.80539 441 ft 117 kts
2026-04-16 04:46 -41.34377 174.80605 235 ft 106 kts 356°
2026-04-16 04:47 -41.33631 174.80631 80 ft 105 kts 357°
2026-04-16 04:47 -41.32959 174.80672 8 ft 78 kts 360°
2026-04-16 04:47 -41.32696 174.80684 8 ft 15 kts 327°
2026-04-16 04:47 -41.32676 174.80565 8 ft 12 kts 293°
2026-04-16 04:48 -41.32597 174.80565 8 ft 16 kts
2026-04-16 04:48 -41.32514 174.80542 8 ft 10 kts 270°
2026-04-16 04:48 -41.32501 174.80440 8 ft 11 kts 334°
2026-04-16 04:48 -41.32452 174.80432 8 ft 0 kts 290°